sat.trackr.live / text

‹ back to catalog

STARLINK-4593

NORAD 53633 · 2022-104AX

PAYLOAD ACTIVE UNKNOWN

§ Identity

Operator
Country
US
Launch date
2022-08-28
Launch site
AFETR
Launch vehicle
Mass (kg)
RCS (m²)

Purposes: comms

External: N2YO · Heavens-Above · Gunter

§ Orbital elements

Epoch: 2026-05-24T23:45:08.548128Z

Period
95.44 min
Inclination
53.2135°
Eccentricity
0.0001324
Mean motion
15.08800826 rev/d
Perigee alt
538.9 km
Apogee alt
540.8 km
Semi-major
6,918.0 km
B*
5.8176e-4
RAAN
241.6205°
Arg perigee
79.9246°
Mean anomaly
280.1895°
Rev number
20,741

§ Raw data

STARLINK-45931 53633U 22104AX  26144.98968227  .00008973  00000+0  58176-3 0  99932 53633  53.2135 241.6205 0001324  79.9246 280.1895 15.08800826207413

JSON: /api/v1/satellites/53633 · /tle

For live sub-satellite position, see the globe view (requires WebGL).

§ Visibility from observer

Set your observer location to see the next 7 days of passes ≥ 10°. The values pass through the URL so the page stays shareable.

No JS? Fill the form by hand. The geolocation button needs JavaScript.